STARLINK-1152 (45096 NORAD) Tracking and Keplerian Element Data

This shows tracking and keplerian element data for the satellite.

Feedback or suggestion? Click here.




ElementValue
Catalog45096
NameSTARLINK-1152
Epoch Orbit175
Epoch Day196.91667824
Epoch Year2020
RAAN151.3048
Inclination52.9885
Eccentricity0.0001655
Argument of Perigee83.8826
Mean Anonmoly211.329
Mean Motion15.05594964
Decay Rate-2.813E-05
L11 45096U 20006BE 20196.91667824 -.00002813 00000-0 -17388-3 0 9999
L22 45096 52.9885 151.3048 0001655 83.8826 211.3290 15.05594964 1756

Live tracking and technical data element details for STARLINK-1152 (NORAD 45096). STARLINK-1152 can be tracked NOW for your location showing map with azimuth and elevation plus other details from your city location.

Track the satellite on the map from your city or location and see movement details for azimuth, elevation, latitude, longitude, range, height, and movement on the map or in text.







IsCatalogInMostPopularTable: catalog: 45096, numindb: 34
Update: records affected: 1



GetName: 45096 STARLINK-1152

Hit Count: updated at: Thu, 16 Jul 2020 02:54:53 GMT